Location: Boursonne
(49.2024°N, 3.0468°E)
Time: 01:39:18
(UTC+00:00)

Cosmos 1066 Rocket - Pass Details

Date: 03 March 2021
Orbit: 799 x 894 km, 81.2° (Epoch: 16 April)

Event Time Altitude Azimuth Distance (km) Brightness Sun altitude
Rises 19:34:46 0° 349° (NNW) 3,435 7.7 -20.3°
Reaches altitude 10° 19:37:12 10° 351° (N) 2,509 6.9 -20.7°
Maximum altitude 19:42:55 73° 77° (ENE) 915 4.1 -21.6°
Enters shadow 19:45:46 31° 156° (SSE) 1,489 5.1 -22.1°
